This is the latest recevied weather packets stored in our database for station/object CE3MXM-12. If no packets are shown the sender has not sent any weather packets the latest 10 day(s).
| Time | Temp. | Humidity | Pressure | Rain* | Wind** | Luminosity | Snow |
|---|---|---|---|---|---|---|---|
| 1778001607 | 19.44° C | 60% | 1012.1 hPa | - | - | - | - |
| 1778001307 | 19.44° C | 58% | 1012.1 hPa | - | - | - | - |
| 1778001007 | 20° C | 57% | 1012.1 hPa | - | - | - | - |
| 1778000707 | 20.56° C | 57% | 1011.9 hPa | - | - | - | - |
| 1778000406 | 20.56° C | 56% | 1012.1 hPa | - | - | - | - |
| 1778000106 | 20.56° C | 56% | 1012 hPa | - | - | - | - |
| 1777999806 | 20.56° C | 55% | 1011.9 hPa | - | - | - | - |
| 1777999506 | 20.56° C | 58% | 1012.2 hPa | - | - | - | - |
| 1777999206 | 20.56° C | 57% | 1012 hPa | - | - | - | - |
| 1777998906 | 20° C | 57% | 1011.9 hPa | - | - | - | - |
| 1777998606 | 20.56° C | 56% | 1012 hPa | - | - | - | - |
| 1777998306 | 20.56° C | 56% | 1011.9 hPa | - | - | - | - |
| 1777998006 | 20° C | 58% | 1011.8 hPa | - | - | - | - |
| 1777997705 | 20° C | 57% | 1011.9 hPa | - | - | - | - |
| 1777997405 | 20° C | 58% | 1012.1 hPa | - | - | - | - |
| 1777997105 | 20° C | 59% | 1012 hPa | - | - | - | - |
| 1777996806 | 20° C | 59% | 1012 hPa | - | - | - | - |
| 1777996505 | 20° C | 58% | 1011.9 hPa | - | - | - | - |
| 1777996205 | 20° C | 59% | 1012 hPa | - | - | - | - |
| 1777995905 | 19.44° C | 59% | 1011.7 hPa | - | - | - | - |
| 1777995605 | 19.44° C | 60% | 1011.9 hPa | - | - | - | - |
| 1777995305 | 20° C | 60% | 1012.1 hPa | - | - | - | - |
| 1777995005 | 20° C | 60% | 1012 hPa | - | - | - | - |
| 1777994705 | 20° C | 61% | 1012.1 hPa | - | - | - | - |
| 1777994404 | 19.44° C | 61% | 1012 hPa | - | - | - | - |
* Rain since midnight (hover to see other rain measurements)
** Current wind speed in m/s (hover to see current wind gust speed)